Weather History for Covington, KY

Change the Weather History Date:

Friday, December 20, 2013

  Actual Average Record
Temperature  
Mean Temperature 56 °F 33 °F  
Max Temperature 61 °F 40 °F 67 °F (1877)
Min Temperature 51 °F 25 °F -9 °F (1981)
Degree Days  
Heating Degree Days 9 32  
Month to date heating degree days 601 593  
Since 1 July heating degree days 1637 1553  
Cooling Degree Days 0 0  
Month to date cooling degree days 0 0  
Year to date cooling degree days 1150 1121  
Growing Degree Days 6 (Base 50)    
Moisture  
Dew Point 48 °F    
Average Humidity 70    
Maximum Humidity 93    
Minimum Humidity 47    
Precipitation  
Precipitation 0.01 in 0.11 in 1.18 in (1881)
Month to date precipitation 2.34 2.16  
Year to date precipitation 46.91 41.31  
Snow  
Snow 0.00 in 0.20 in 5.70 in (1942)
Month to date snowfall 10.1 2.7  
Since 1 July snowfall 12.5 3.5  
Snow Depth 0.00 in    
Sea Level Pressure  
Sea Level Pressure 29.90 in    
Wind  
Wind Speed 14 mph (SSW)    
Max Wind Speed 22 mph    
Max Gust Speed 31 mph    
Visibility 10 miles    
Events Rain    
T = Trace of Precipitation, MM = Missing Value Source: NWS Daily Summary

Daily Weather History Graph

Daily Weather History Graph

Search for Another Location

Airport:

Trip Planner

Search our weather history database for the weather conditions in past years. The results will help you decide how hot, cold, wet, or windy it might be!

Date:

Astronomy

Dec. 20, 2013 Rise Set
Actual Time 7:53 AM EST 5:19 PM EST
Civil Twilight 7:23 AM EST 5:49 PM EST
Nautical Twilight 6:50 AM EST 6:22 PM EST
Astronomical Twilight 6:17 AM EST 6:55 PM EST
Moon 8:37 PM EST (12/20) 9:48 AM EST (12/20)
Length of Visible Light 10h 25m
Length of Day
9h 25m
Waning Gibbous, 90% of the Moon is Illuminated
Dec 20
Waning Gibbous
Dec 25
Last Quarter
Jan 1
New
Jan 7
First Quarter
Jan 15
Full

Hourly Weather History & Observations

Time (EST) Temp. Dew Point Humidity Pressure Visibility Wind Dir Wind Speed Gust Speed Precip Events Conditions
12:52 AM 55.0 °F 36.0 °F 49% 29.96 in 10.0 mi SSW 16.1 mph 24.2 mph N/A   Overcast
1:52 AM 54.0 °F 35.1 °F 49% 29.94 in 10.0 mi SSW 16.1 mph 23.0 mph N/A   Overcast
2:52 AM 54.0 °F 36.0 °F 51% 29.95 in 10.0 mi SSW 10.4 mph 18.4 mph N/A   Overcast
3:52 AM 55.0 °F 37.0 °F 51% 29.94 in 10.0 mi South 15.0 mph 25.3 mph N/A   Overcast
4:52 AM 55.0 °F 37.0 °F 51% 29.93 in 10.0 mi SSW 15.0 mph 23.0 mph 0.00 in   Overcast
5:52 AM 54.0 °F 37.0 °F 53% 29.92 in 10.0 mi SSW 13.8 mph 25.3 mph N/A   Overcast
6:52 AM 52.0 °F 39.0 °F 61% 29.92 in 10.0 mi South 12.7 mph - 0.00 in   Overcast
7:39 AM 53.6 °F 39.2 °F 58% 29.93 in 10.0 mi SSW 16.1 mph 25.3 mph 0.00 in   Overcast
7:52 AM 53.1 °F 39.9 °F 61% 29.92 in 10.0 mi SSW 13.8 mph 25.3 mph 0.00 in Rain Light Rain
8:52 AM 51.1 °F 42.1 °F 71% 29.93 in 10.0 mi South 12.7 mph 20.7 mph 0.00 in   Overcast
9:52 AM 51.1 °F 43.0 °F 74% 29.93 in 10.0 mi South 11.5 mph - 0.00 in   Overcast
10:52 AM 54.0 °F 46.0 °F 75% 29.94 in 10.0 mi SSW 10.4 mph 19.6 mph N/A   Overcast
11:52 AM 55.0 °F 48.0 °F 77% 29.92 in 10.0 mi SSW 18.4 mph 25.3 mph N/A   Overcast
12:39 PM 53.6 °F 50.0 °F 88% 29.89 in 8.0 mi SSW 13.8 mph 23.0 mph 0.00 in Rain Light Rain
12:52 PM 54.0 °F 50.0 °F 86% 29.89 in 9.0 mi SSW 9.2 mph 19.6 mph 0.00 in   Overcast
1:52 PM 54.0 °F 52.0 °F 93% 29.87 in 9.0 mi SSW 15.0 mph 24.2 mph 0.01 in   Overcast
2:52 PM 55.9 °F 53.1 °F 90% 29.85 in 9.0 mi SSW 11.5 mph 21.9 mph N/A   Overcast
3:52 PM 57.0 °F 53.1 °F 87% 29.85 in 9.0 mi SSW 13.8 mph 25.3 mph N/A   Overcast
4:31 PM 57.2 °F 53.6 °F 88% 29.87 in 9.0 mi SSW 15.0 mph 21.9 mph N/A   Overcast
4:52 PM 57.9 °F 54.0 °F 87% 29.86 in 8.0 mi SSW 15.0 mph 20.7 mph 0.00 in   Light Drizzle
5:52 PM 59.0 °F 55.0 °F 87% 29.86 in 8.0 mi SSW 11.5 mph 20.7 mph 0.00 in   Light Drizzle
6:52 PM 59.0 °F 55.0 °F 87% 29.87 in 9.0 mi SSW 12.7 mph - 0.00 in   Light Drizzle
7:43 PM 59.0 °F 55.4 °F 88% 29.88 in 10.0 mi SSW 15.0 mph 26.5 mph 0.00 in   Overcast
7:52 PM 60.1 °F 55.9 °F 86% 29.87 in 10.0 mi SSW 15.0 mph 25.3 mph 0.00 in   Overcast
8:29 PM 59.0 °F 55.4 °F 88% 29.88 in 9.0 mi SSW 16.1 mph 25.3 mph 0.00 in   Overcast
8:40 PM 59.0 °F 55.4 °F 88% 29.88 in 9.0 mi SSW 15.0 mph 20.7 mph 0.00 in   Overcast
8:52 PM 59.0 °F 55.9 °F 90% 29.87 in 9.0 mi South 17.3 mph 25.3 mph 0.00 in   Overcast
9:22 PM 60.8 °F 57.2 °F 88% 29.86 in 9.0 mi South 16.1 mph 26.5 mph N/A   Overcast
9:52 PM 60.1 °F 57.0 °F 90% 29.86 in 9.0 mi South 15.0 mph 27.6 mph 0.00 in   Overcast
10:52 PM 60.1 °F 57.0 °F 90% 29.84 in 10.0 mi SSW 15.0 mph 21.9 mph 0.00 in Rain Light Rain
11:52 PM 61.0 °F 57.0 °F 87% 29.83 in 10.0 mi SSW 17.3 mph 25.3 mph 0.00 in   Overcast